Location: Huesca
(42.1318°N, 0.4078°W)
Time: 22:51:50
(UTC+02:00)

ACS3 Solar Sail - Pass Details

Date: 26 June 2024
Orbit: 992 x 1023 km, 97.4° (Epoch: 12 July)

Event Time Altitude Azimuth Distance (km) Brightness Sun altitude
Exits shadow 23:49:30 19° 184° (S) 2,154 6.1 -17.5°
Maximum altitude 23:53:58 62° 261° (W) 1,111 5.2 -17.9°
Drops below altitude 10° 00:00:08 10° 342° (NNW) 2,765 8.4 -18.5°
Sets 00:02:40 0° 345° (NNW) 3,718 9.3 -18.7°
